Weather reports worldwide

Advertisment
Bujaraloz, Spain (8165): temperature & dewpoint: 18.06.2019 16:00:00 - 24.06.2019 16:00:00 (CEST)Bujaraloz, Spain (8165): wind speed & gusts: 18.06.2019 16:00:00 - 24.06.2019 16:00:00 (CEST)Bujaraloz, Spain (8165): wind direction: 18.06.2019 16:00:00 - 24.06.2019 16:00:00 (CEST)Bujaraloz, Spain (8165): reduced air pressure: 18.06.2019 16:00:00 - 24.06.2019 16:00:00 (CEST)Bujaraloz, Spain (8165): visibility: 18.06.2019 16:00:00 - 24.06.2019 16:00:00 (CEST)Bujaraloz, Spain (8165): sunshine duration: 18.06.2019 16:00:00 - 24.06.2019 16:00:00 (CEST)Bujaraloz, Spain (8165): precipitation: 18.06.2019 16:00:00 - 24.06.2019 16:00:00 (CEST)
Date & Time tt [°C] td [°C] ff [km/h] ff [kn] fx [km/h] fx [kn] dd ppp [hPa] vv [km] sd [min] rr [mm]
24.06.2019 16:00:00 - - - - - - - - - - -
24.06.2019 15:00:00 32,0 8,3 28 15 48 26 ESE 1010,1 20 60 0,0
24.06.2019 14:00:00 31,8 7,4 26 14 47 25 SE 1010,9 20 60 -
24.06.2019 13:00:00 31,0 8,7 30 16 50 27 SE 1011,0 20 60 0,0
24.06.2019 12:00:00 30,1 10,0 29 16 48 26 ESE 1011,4 20 60 0,0
24.06.2019 11:00:00 28,2 8,5 26 14 44 24 ESE 1011,8 20 57 0,0
24.06.2019 10:00:00 27,3 11,8 15 8 24 13 ESE 1012,2 20 60 0,0
24.06.2019 09:00:00 23,1 13,9 8 5 14 8 ESE 1012,7 20 60 0,0
24.06.2019 08:00:00 21,6 12,7 11 6 16 9 ESE 1012,8 20 27 -
24.06.2019 07:00:00 20,4 13,9 11 6 26 14 E 1012,4 20 0 0,0
24.06.2019 06:00:00 20,3 15,3 18 10 30 16 E 1012,1 20 0 0,0
24.06.2019 05:00:00 20,8 15,5 18 10 24 13 ENE 1012,0 20 0 0,0
24.06.2019 04:00:00 21,3 14,9 17 9 24 13 ENE 1011,7 20 0 0,0
24.06.2019 03:00:00 22,3 14,4 11 6 23 12 E 1011,6 20 0 0,0
24.06.2019 02:00:00 23,0 13,0 14 7 22 12 ESE 1011,2 20 0 -
24.06.2019 01:00:00 24,0 12,0 14 7 22 12 ENE 1010,9 20 0 0,0
24.06.2019 00:00:00 24,8 11,7 16 9 26 14 E 1010,3 20 0 0,0
23.06.2019 23:00:00 25,6 11,8 17 9 28 15 E 1010,0 20 0 0,0
23.06.2019 22:00:00 27,0 11,4 16 8 34 18 ESE 1008,9 20 0 0,0
23.06.2019 21:00:00 28,6 12,8 24 13 43 23 ESE 1008,3 20 44 0,0
23.06.2019 20:00:00 30,5 13,8 28 15 41 22 E 1007,5 20 55 -
23.06.2019 19:00:00 32,2 14,3 29 16 46 25 ESE 1006,9 20 58 0,0
23.06.2019 18:00:00 34,0 13,5 29 16 46 25 ESE 1007,0 20 60 0,0
23.06.2019 17:00:00 34,5 14,4 27 15 46 25 ESE 1007,5 20 60 0,0
23.06.2019 16:00:00 34,9 13,2 25 14 - - E 1007,9 20 60 0,0
23.06.2019 15:00:00 34,4 12,1 22 12 30 16 ENE 1008,6 20 60 0,0
23.06.2019 14:00:00 33,4 13,0 17 9 25 13 NE 1009,5 20 60 -
23.06.2019 13:00:00 31,2 13,9 19 10 27 15 NE 1010,3 20 60 0,0
23.06.2019 12:00:00 28,8 15,3 14 8 19 11 NE 1010,9 20 60 0,0
23.06.2019 11:00:00 26,2 15,5 13 7 18 10 NE 1011,4 20 60 0,0
23.06.2019 10:00:00 24,1 15,9 6 3 13 7 ENE 1012,1 20 60 0,0
23.06.2019 09:00:00 21,8 15,9 9 5 15 8 NE 1012,1 20 60 0,0
23.06.2019 08:00:00 20,7 16,3 12 6 19 11 ENE 1011,5 20 34 -
23.06.2019 07:00:00 20,1 16,0 14 8 21 11 ENE 1011,2 20 0 0,0
23.06.2019 06:00:00 20,3 15,5 15 8 21 12 E 1010,9 20 0 0,0
23.06.2019 05:00:00 20,8 15,5 14 8 21 11 ENE 1011,0 20 0 0,0
23.06.2019 04:00:00 21,1 15,6 11 6 16 9 ENE 1010,9 20 0 0,0
23.06.2019 03:00:00 22,0 14,6 9 5 18 10 ESE 1011,1 20 0 0,0
23.06.2019 02:00:00 22,3 14,7 10 5 16 9 E 1011,0 20 0 -
23.06.2019 01:00:00 22,6 14,7 11 6 24 13 E 1011,1 20 0 0,0
23.06.2019 00:00:00 23,1 14,6 13 7 25 13 E 1011,2 20 0 0,0
22.06.2019 23:00:00 24,0 14,7 11 6 29 16 SE 1011,0 20 0 0,0
22.06.2019 22:00:00 25,2 14,9 17 9 41 22 ESE 1010,2 20 0 0,0
22.06.2019 21:00:00 26,9 14,6 24 13 41 22 ESE 1009,6 20 3 0,0
22.06.2019 20:00:00 29,4 13,6 23 12 39 21 ESE 1009,3 20 38 -
22.06.2019 19:00:00 31,1 12,4 26 14 39 21 ESE 1008,9 20 60 0,0
22.06.2019 18:00:00 31,8 9,9 14 8 19 11 NE 1009,1 20 60 0,0
22.06.2019 17:00:00 30,9 10,8 10 6 17 9 NE 1010,1 20 60 0,0
22.06.2019 16:00:00 29,4 11,4 14 8 19 11 NE 1010,9 20 60 0,0
22.06.2019 15:00:00 27,9 11,0 11 6 16 9 NE 1012,2 20 60 0,0
22.06.2019 14:00:00 26,3 8,8 6 3 16 9 NE 1013,4 20 60 -
22.06.2019 13:00:00 24,6 6,8 8 4 14 8 NNW 1014,5 20 60 0,0
22.06.2019 12:00:00 23,0 9,8 8 5 13 7 WNW 1015,1 20 60 0,0
22.06.2019 11:00:00 20,9 9,8 7 4 16 9 WNW 1015,6 20 60 0,0
22.06.2019 10:00:00 19,1 9,6 9 5 23 12 W 1016,3 20 60 0,0
22.06.2019 09:00:00 17,8 9,7 16 9 22 12 NW 1016,2 20 60 0,0
22.06.2019 08:00:00 15,9 9,8 10 6 15 8 SW 1016,2 20 57 -
22.06.2019 07:00:00 14,9 9,7 12 7 16 8 WSW 1016,1 20 9 0,0
22.06.2019 06:00:00 15,2 9,6 13 7 25 14 W 1016,1 20 0 0,0
22.06.2019 05:00:00 15,8 9,7 19 11 35 19 W 1016,0 20 0 0,0
22.06.2019 04:00:00 16,7 9,4 28 15 37 20 W 1016,0 20 0 0,0
22.06.2019 03:00:00 17,4 9,3 26 14 40 21 W 1016,1 20 0 0,0
22.06.2019 02:00:00 18,3 9,0 29 16 37 20 W 1015,9 20 0 -
22.06.2019 01:00:00 19,4 10,2 26 14 35 19 W 1015,6 20 0 0,0
22.06.2019 00:00:00 20,4 9,9 24 13 40 22 W 1015,0 20 0 0,0
21.06.2019 23:00:00 21,9 10,6 28 15 41 22 WNW 1014,6 20 0 0,0
21.06.2019 22:00:00 23,6 11,0 33 18 45 25 WNW 1013,2 20 24 0,0
21.06.2019 21:00:00 25,4 11,6 27 14 - - WNW 1012,3 20 58 0,0
21.06.2019 20:00:00 26,9 13,0 13 7 26 14 WSW 1011,7 20 59 -
21.06.2019 19:00:00 26,4 13,6 13 7 26 14 SW 1011,9 20 60 0,0
21.06.2019 18:00:00 26,5 13,9 11 6 26 14 WSW 1011,9 20 60 0,0
21.06.2019 17:00:00 25,8 14,2 10 5 22 12 W 1012,2 20 42 0,0
21.06.2019 16:00:00 24,4 14,2 6 4 24 13 WNW 1012,8 20 36 0,0
21.06.2019 15:00:00 24,1 14,2 13 7 26 14 WNW 1013,4 20 40 0,0
21.06.2019 14:00:00 22,3 14,7 11 6 20 11 NNW 1014,1 20 12 -
21.06.2019 13:00:00 21,5 14,4 13 7 24 13 WNW 1014,3 20 9 0,0
21.06.2019 12:00:00 20,2 14,8 13 7 22 12 WNW 1014,6 20 3 0,0
21.06.2019 11:00:00 20,0 14,6 12 7 26 14 W 1014,4 20 44 0,0
21.06.2019 10:00:00 18,5 14,1 16 9 24 13 WNW 1014,4 20 11 0,0
21.06.2019 09:00:00 17,6 14,7 15 8 23 13 W 1014,4 20 0 0,0
21.06.2019 08:00:00 - - - - - - - - - - -
21.06.2019 07:00:00 - - - - - - - - - - -
21.06.2019 06:00:00 - - - - - - - - - - -
21.06.2019 05:00:00 - - - - - - - - - - -
21.06.2019 04:00:00 - - - - - - - - - - -
21.06.2019 03:00:00 - - - - - - - - - - -
21.06.2019 02:00:00 - - - - - - - - - - -
21.06.2019 01:00:00 - - - - - - - - - - -
21.06.2019 00:00:00 - - - - - - - - - - -
20.06.2019 23:00:00 - - - - - - - - - - -
20.06.2019 22:00:00 - - - - - - - - - - -
20.06.2019 21:00:00 - - - - - - - - - - -
20.06.2019 20:00:00 - - - - - - - - - - -
20.06.2019 19:00:00 - - - - - - - - - - -
20.06.2019 18:00:00 - - - - - - - - - - -
20.06.2019 17:00:00 - - - - - - - - - - -
20.06.2019 16:00:00 - - - - - - - - - - -
20.06.2019 15:00:00 - - - - - - - - - - -
20.06.2019 14:00:00 - - - - - - - - - - -
20.06.2019 13:00:00 - - - - - - - - - - -
20.06.2019 12:00:00 - - - - - - - - - - -
20.06.2019 11:00:00 - - - - - - - - - - -
20.06.2019 10:00:00 - - - - - - - - - - -
20.06.2019 09:00:00 20,3 12,7 30 16 39 21 W 1012,1 20 60 0,0
20.06.2019 08:00:00 19,4 13,2 22 12 38 20 W 1011,9 20 42 -
20.06.2019 07:00:00 19,3 13,1 27 15 35 19 W 1011,5 20 2 0,0
20.06.2019 06:00:00 19,7 13,4 16 9 30 16 W 1011,3 20 0 0,0
20.06.2019 05:00:00 20,8 13,9 25 13 34 18 WNW 1010,6 20 0 0,0
20.06.2019 04:00:00 21,5 14,1 6 4 - - NNW 1010,0 20 - -
20.06.2019 03:00:00 22,7 14,2 9 5 14 7 NNE 1009,7 20 0 0,0
20.06.2019 02:00:00 23,6 13,5 7 4 13 7 ENE 1009,4 20 0 -
20.06.2019 01:00:00 24,5 13,1 7 4 17 9 E 1009,1 20 0 0,0
20.06.2019 00:00:00 25,7 13,3 10 5 19 10 SSE 1009,1 20 0 0,0
19.06.2019 23:00:00 27,2 12,8 11 6 27 15 E 1008,6 20 0 0,0
19.06.2019 22:00:00 28,9 12,7 18 10 35 19 E 1007,5 20 0 0,0
19.06.2019 21:00:00 30,0 12,0 21 11 31 17 NE 1007,0 20 0 0,0
19.06.2019 20:00:00 31,4 10,6 12 6 19 10 NE 1006,9 20 21 -
19.06.2019 19:00:00 32,4 9,8 7 4 23 13 ENE 1006,7 20 37 0,0
19.06.2019 18:00:00 32,9 9,7 18 10 29 16 ENE 1006,9 20 59 0,0
19.06.2019 17:00:00 33,3 9,3 7 4 21 12 W 1007,5 20 60 0,0
19.06.2019 16:00:00 32,1 10,2 13 7 - - WNW 1008,2 20 - -
19.06.2019 15:00:00 - - - - - - - - - - -
19.06.2019 14:00:00 29,8 9,8 13 7 - - N 1010,0 19 59 -
19.06.2019 13:00:00 - - - - - - - - - - -
19.06.2019 12:00:00 27,0 10,6 8 4 16 9 NE 1010,8 20 60 0,0
19.06.2019 11:00:00 - - - - - - - - - - -
19.06.2019 10:00:00 - - - - - - - - - - -
19.06.2019 09:00:00 - - - - - - - - - - -
19.06.2019 08:00:00 - - - - - - - - - - -
19.06.2019 07:00:00 - - - - - - - - - - -
19.06.2019 06:00:00 - - - - - - - - - - -
19.06.2019 05:00:00 - - - - - - - - - - -
19.06.2019 04:00:00 - - - - - - - - - - -
19.06.2019 03:00:00 - - - - - - - - - - -
19.06.2019 02:00:00 - - - - - - - - - - -
19.06.2019 01:00:00 - - - - - - - - - - -
19.06.2019 00:00:00 - - - - - - - - - - -
18.06.2019 23:00:00 - - - - - - - - - - -
18.06.2019 22:00:00 - - - - - - - - - - -
18.06.2019 21:00:00 - - - - - - - - - - -
18.06.2019 20:00:00 - - - - - - - - - - -
18.06.2019 19:00:00 31,2 8,8 32 17 55 30 ESE 1005,5 20 59 0,0
18.06.2019 18:00:00 32,4 12,1 39 21 62 33 ESE 1005,3 20 60 0,0
18.06.2019 17:00:00 32,7 14,3 34 19 55 30 ESE 1005,7 20 60 0,0
18.06.2019 16:00:00 32,8 13,9 32 17 45 24 E 1006,7 20 60 0,0

tt = temperature
td = dewpoint
ff = wind speed
fx = gusts
dd = wind direction
ppp = reduced air pressure
vv = visibility
sd = sunshine duration
rr = precipitation

Next stations